CXPPV SAEZ-SGAS

Flight info

Callsign CXPPV
Flight time 1h 48m
Altitude 41000
Route LANDA UN785 GUA UL793 DALAB UZ103 REPAM UP526 SAMGU
Aircraft A333/H-SDE3GHIJ2J3J5M1RVWXY/LB2D1

Departure

Time 2026-05-07 19:38
Airport Ezeiza International Airport - Ministro Pistarini (SAEZ)

Arrival

Time 2026-05-07 21:27
Airport Silvio Pettirossi International Airport (SGAS)
Time Latitude Longitude Altitude Speed Heading
2026-05-07 18:55 -34.81605 -58.53981 79 ft 0 kts 320°
2026-05-07 19:25 -34.81605 -58.53980 79 ft 0 kts 320°
2026-05-07 19:25 -34.81607 -58.53978 84 ft 3 kts 320°
2026-05-07 19:26 -34.81622 -58.53963 83 ft 3 kts 320°
2026-05-07 19:26 -34.81636 -58.53948 84 ft 3 kts 320°
2026-05-07 19:26 -34.81651 -58.53933 84 ft 3 kts 330°
2026-05-07 19:26 -34.81669 -58.53926 84 ft 3 kts 353°
2026-05-07 19:27 -34.81687 -58.53923 83 ft 3 kts 353°
2026-05-07 19:27 -34.81705 -58.53921 84 ft 3 kts 353°
2026-05-07 19:27 -34.81724 -58.53919 84 ft 3 kts
2026-05-07 19:27 -34.81742 -58.53927 85 ft 2 kts 51°
2026-05-07 19:28 -34.81743 -58.53928 85 ft 0 kts 51°
2026-05-07 19:28 -34.81743 -58.53927 85 ft 0 kts 51°
2026-05-07 19:28 -34.81737 -58.53919 85 ft 2 kts 51°
2026-05-07 19:30 -34.81736 -58.53917 85 ft 1 kts 51°
2026-05-07 19:30 -34.81724 -58.53898 85 ft 7 kts 51°
2026-05-07 19:30 -34.81693 -58.53843 84 ft 8 kts 63°
2026-05-07 19:31 -34.81692 -58.53770 84 ft 9 kts 110°
2026-05-07 19:31 -34.81742 -58.53724 82 ft 10 kts 154°
2026-05-07 19:31 -34.81809 -58.53684 82 ft 12 kts 154°
2026-05-07 19:31 -34.81882 -58.53634 84 ft 12 kts 141°
2026-05-07 19:32 -34.81920 -58.53537 81 ft 13 kts 103°
2026-05-07 19:32 -34.81943 -58.53422 82 ft 15 kts 104°
2026-05-07 19:32 -34.81970 -58.53293 83 ft 16 kts 104°
2026-05-07 19:32 -34.81999 -58.53156 83 ft 16 kts 104°
2026-05-07 19:33 -34.82024 -58.53036 87 ft 14 kts 104°
2026-05-07 19:33 -34.82048 -58.52917 86 ft 15 kts 104°
2026-05-07 19:33 -34.82076 -58.52778 85 ft 19 kts 104°
2026-05-07 19:33 -34.82107 -58.52617 83 ft 21 kts 103°
2026-05-07 19:34 -34.82141 -58.52446 84 ft 21 kts 103°
2026-05-07 19:34 -34.82176 -58.52270 79 ft 22 kts 103°
2026-05-07 19:34 -34.82211 -58.52094 84 ft 8 kts 104°
2026-05-07 19:34 -34.82213 -58.52085 84 ft 2 kts 103°
2026-05-07 19:35 -34.82222 -58.52039 82 ft 10 kts 103°
2026-05-07 19:35 -34.82242 -58.51939 84 ft 14 kts 103°
2026-05-07 19:35 -34.82265 -58.51821 82 ft 13 kts 103°
2026-05-07 19:35 -34.82306 -58.51789 82 ft 7 kts 181°
2026-05-07 19:36 -34.82341 -58.51794 82 ft 5 kts 186°
2026-05-07 19:36 -34.82393 -58.51805 85 ft 9 kts 191°
2026-05-07 19:36 -34.82451 -58.51819 87 ft 7 kts 191°
2026-05-07 19:36 -34.82491 -58.51828 88 ft 5 kts 191°
2026-05-07 19:37 -34.82527 -58.51856 90 ft 5 kts 249°
2026-05-07 19:37 -34.82520 -58.51922 88 ft 16 kts 283°
2026-05-07 19:37 -34.82453 -58.52281 88 ft 74 kts 282°
2026-05-07 19:37 -34.82303 -58.53123 86 ft 127 kts 282°
2026-05-07 19:38 -34.82086 -58.54303 379 ft 149 kts 283°
2026-05-07 19:38 -34.81868 -58.55515 1130 ft 144 kts 276°
2026-05-07 19:38 -34.81727 -58.56670 1902 ft 140 kts 273°
2026-05-07 19:38 -34.81537 -58.57881 2422 ft 151 kts 277°
2026-05-07 19:39 -34.81305 -58.59205 2765 ft 171 kts 275°
2026-05-07 19:39 -34.81324 -58.60731 3224 ft 184 kts 252°
2026-05-07 19:39 -34.81941 -58.62091 3878 ft 192 kts 233°
2026-05-07 19:39 -34.82820 -58.63355 4639 ft 199 kts 231°
2026-05-07 19:40 -34.83770 -58.64641 5362 ft 208 kts 231°
2026-05-07 19:40 -34.84749 -58.65956 6236 ft 211 kts 233°
2026-05-07 19:40 -34.85737 -58.67309 6997 ft 218 kts 233°
2026-05-07 19:40 -34.86768 -58.68718 7686 ft 228 kts 234°
2026-05-07 19:41 -34.87897 -58.70118 8471 ft 237 kts 224°
2026-05-07 19:41 -34.89430 -58.70994 9255 ft 255 kts 194°
2026-05-07 19:41 -34.91221 -58.70738 9979 ft 269 kts 158°
2026-05-07 19:41 -34.92811 -58.69519 10786 ft 271 kts 142°
2026-05-07 19:42 -34.94202 -58.67970 11628 ft 272 kts 135°
2026-05-07 19:42 -34.95368 -58.66180 12404 ft 275 kts 119°
2026-05-07 19:42 -34.95947 -58.63945 13197 ft 276 kts 95°
2026-05-07 19:42 -34.96007 -58.61573 13720 ft 287 kts 81°
2026-05-07 19:43 -34.95572 -58.59175 13989 ft 303 kts 63°
2026-05-07 19:43 -34.94359 -58.57035 14251 ft 314 kts 38°
2026-05-07 19:43 -34.92537 -58.55515 14535 ft 324 kts 18°
2026-05-07 19:43 -34.90326 -58.54852 14838 ft 334 kts
2026-05-07 19:44 -34.87983 -58.54418 15259 ft 344 kts
2026-05-07 19:44 -34.85587 -58.54329 15922 ft 344 kts 355°
2026-05-07 19:44 -34.83201 -58.54368 16768 ft 342 kts 353°
2026-05-07 19:44 -34.80828 -58.54435 17617 ft 340 kts 352°
2026-05-07 19:45 -34.78472 -58.54511 18381 ft 338 kts 352°
2026-05-07 19:45 -34.76126 -58.54591 19079 ft 336 kts 352°
2026-05-07 19:45 -34.73788 -58.54672 19710 ft 337 kts 352°
2026-05-07 19:45 -34.71437 -58.54755 20340 ft 338 kts 352°
2026-05-07 19:46 -34.69084 -58.54836 21020 ft 337 kts 352°
2026-05-07 19:46 -34.66743 -58.54917 21670 ft 336 kts 352°
2026-05-07 19:46 -34.64405 -58.54989 22346 ft 336 kts 352°
2026-05-07 19:46 -34.62075 -58.55074 22974 ft 335 kts 352°
2026-05-07 19:47 -34.59744 -58.55158 23519 ft 335 kts 352°
2026-05-07 19:47 -34.57414 -58.55242 23986 ft 336 kts 352°
2026-05-07 19:47 -34.55068 -58.55324 24446 ft 338 kts 353°
2026-05-07 19:47 -34.52718 -58.55404 24918 ft 339 kts 353°
2026-05-07 19:48 -34.50356 -58.55486 25372 ft 340 kts 353°
2026-05-07 19:48 -34.47993 -58.55567 25826 ft 341 kts 353°
2026-05-07 19:48 -34.45620 -58.55649 26274 ft 341 kts 354°
2026-05-07 19:48 -34.43240 -58.55731 26739 ft 342 kts 354°
2026-05-07 19:49 -34.40858 -58.55813 27175 ft 343 kts 354°
2026-05-07 19:49 -34.38463 -58.55895 27601 ft 345 kts 354°
2026-05-07 19:49 -34.36068 -58.55978 28001 ft 346 kts 354°
2026-05-07 19:49 -34.33657 -58.56060 28419 ft 347 kts 355°
2026-05-07 19:50 -34.31240 -58.56143 28804 ft 348 kts 355°
2026-05-07 19:50 -34.28808 -58.56227 29182 ft 350 kts 355°
2026-05-07 19:50 -34.26369 -58.56311 29568 ft 351 kts 355°
2026-05-07 19:50 -34.23922 -58.56395 29927 ft 352 kts 355°
2026-05-07 19:51 -34.21464 -58.56479 30222 ft 354 kts 355°
2026-05-07 19:51 -34.18995 -58.56564 30500 ft 356 kts 355°
2026-05-07 19:51 -34.16506 -58.56650 30783 ft 358 kts 355°
2026-05-07 19:51 -34.14041 -58.56734 31077 ft 360 kts 355°
2026-05-07 19:52 -34.11498 -58.56821 31350 ft 362 kts 355°
2026-05-07 19:52 -34.09007 -58.56906 31601 ft 364 kts 355°
2026-05-07 19:52 -34.06470 -58.56993 31883 ft 365 kts 355°
2026-05-07 19:52 -34.03938 -58.57079 32284 ft 364 kts 355°
2026-05-07 19:53 -34.01417 -58.57164 32707 ft 361 kts 355°
2026-05-07 19:53 -33.98908 -58.57249 33148 ft 359 kts 355°
2026-05-07 19:53 -33.96415 -58.57334 33550 ft 358 kts 355°
2026-05-07 19:53 -33.93933 -58.57419 33887 ft 357 kts 355°
2026-05-07 19:54 -33.91448 -58.57505 34084 ft 359 kts 355°
2026-05-07 19:54 -33.88944 -58.57602 34252 ft 361 kts 355°
2026-05-07 19:54 -33.86420 -58.57710 34424 ft 363 kts 355°
2026-05-07 19:54 -33.83893 -58.57821 34672 ft 364 kts 355°
2026-05-07 19:55 -33.81356 -58.57934 34872 ft 365 kts 354°
2026-05-07 19:55 -33.78812 -58.58048 35049 ft 367 kts 354°
2026-05-07 19:55 -33.76249 -58.58162 35247 ft 369 kts 354°
2026-05-07 19:55 -33.73680 -58.58275 35444 ft 371 kts 354°
2026-05-07 19:56 -33.71097 -58.58388 35639 ft 372 kts 354°
2026-05-07 19:56 -33.68502 -58.58501 35824 ft 374 kts 354°
2026-05-07 19:56 -33.65900 -58.58614 36006 ft 375 kts 354°
2026-05-07 19:56 -33.63280 -58.58728 36199 ft 376 kts 354°
2026-05-07 19:57 -33.60663 -58.58841 36409 ft 377 kts 354°
2026-05-07 19:57 -33.58038 -58.58955 36591 ft 378 kts 353°
2026-05-07 19:57 -33.55398 -58.59070 36761 ft 380 kts 353°
2026-05-07 19:57 -33.52749 -58.59185 36947 ft 381 kts 353°
2026-05-07 19:58 -33.50099 -58.59300 37127 ft 383 kts 353°
2026-05-07 19:58 -33.47430 -58.59415 37302 ft 384 kts 353°
2026-05-07 19:58 -33.44758 -58.59531 37471 ft 385 kts 353°
2026-05-07 19:58 -33.42076 -58.59647 37645 ft 386 kts 353°
2026-05-07 19:59 -33.39392 -58.59762 37920 ft 385 kts 352°
2026-05-07 19:59 -33.36721 -58.59876 38130 ft 385 kts 352°
2026-05-07 19:59 -33.34036 -58.59993 38278 ft 387 kts 352°
2026-05-07 19:59 -33.31344 -58.60109 38425 ft 388 kts 352°
2026-05-07 20:00 -33.28645 -58.60226 38563 ft 388 kts 352°
2026-05-07 20:00 -33.25940 -58.60343 38726 ft 389 kts 352°
2026-05-07 20:00 -33.23237 -58.60459 38874 ft 389 kts 352°
2026-05-07 20:00 -33.20527 -58.60575 39024 ft 390 kts 352°
2026-05-07 20:01 -33.17821 -58.60690 39256 ft 387 kts 353°
2026-05-07 20:01 -33.15142 -58.60803 39540 ft 384 kts 353°
2026-05-07 20:01 -33.12472 -58.60917 39641 ft 386 kts 353°
2026-05-07 20:01 -33.09780 -58.61034 39721 ft 387 kts 353°
2026-05-07 20:02 -33.07087 -58.61151 39825 ft 388 kts 353°
2026-05-07 20:02 -33.04379 -58.61268 39928 ft 389 kts 353°
2026-05-07 20:02 -33.01710 -58.61385 40043 ft 390 kts 353°
2026-05-07 20:02 -32.98997 -58.61550 40168 ft 390 kts 352°
2026-05-07 20:03 -32.96289 -58.61761 40278 ft 390 kts 351°
2026-05-07 20:03 -32.93577 -58.61995 40388 ft 391 kts 351°
2026-05-07 20:03 -32.90863 -58.62236 40504 ft 392 kts 351°
2026-05-07 20:03 -32.88142 -58.62479 40619 ft 393 kts 351°
2026-05-07 20:04 -32.82654 -58.62957 40671 ft 398 kts 351°
2026-05-07 20:04 -32.77108 -58.63427 40673 ft 400 kts 352°
2026-05-07 20:05 -32.71558 -58.63890 40677 ft 399 kts 352°
2026-05-07 20:05 -32.66015 -58.64352 40680 ft 399 kts 352°
2026-05-07 20:06 -32.60477 -58.64816 40682 ft 399 kts 352°
2026-05-07 20:06 -32.54932 -58.65279 40682 ft 399 kts 352°
2026-05-07 20:07 -32.49391 -58.65742 40673 ft 399 kts 352°
2026-05-07 20:07 -32.43859 -58.66203 40676 ft 398 kts 352°
2026-05-07 20:08 -32.38333 -58.66664 40679 ft 398 kts 352°
2026-05-07 20:08 -32.33725 -58.66856 40675 ft 402 kts 358°
2026-05-07 20:09 -32.28141 -58.66042 40678 ft 406 kts
2026-05-07 20:10 -32.19774 -58.64305 40675 ft 407 kts
2026-05-07 20:10 -32.14199 -58.63115 40676 ft 407 kts
2026-05-07 20:11 -32.08620 -58.61945 40679 ft 407 kts
2026-05-07 20:11 -32.03036 -58.60788 40667 ft 407 kts
2026-05-07 20:12 -31.97464 -58.59636 40675 ft 407 kts
2026-05-07 20:12 -31.91920 -58.58491 40670 ft 407 kts
2026-05-07 20:13 -31.86307 -58.57333 40674 ft 407 kts
2026-05-07 20:13 -31.80766 -58.56191 40691 ft 407 kts
2026-05-07 20:14 -31.75190 -58.55043 40677 ft 407 kts
2026-05-07 20:14 -31.69608 -58.53895 40674 ft 407 kts
2026-05-07 20:15 -31.64028 -58.52749 40684 ft 407 kts
2026-05-07 20:15 -31.58445 -58.51604 40685 ft 407 kts
2026-05-07 20:16 -31.52857 -58.50458 40672 ft 407 kts
2026-05-07 20:16 -31.47282 -58.49317 40688 ft 407 kts
2026-05-07 20:17 -31.41706 -58.48178 40688 ft 407 kts
2026-05-07 20:17 -31.36137 -58.47042 40686 ft 405 kts
2026-05-07 20:18 -31.30616 -58.45915 40690 ft 401 kts
2026-05-07 20:18 -31.25112 -58.44795 40693 ft 402 kts
2026-05-07 20:19 -31.19603 -58.43677 40693 ft 402 kts
2026-05-07 20:19 -31.14093 -58.42559 40697 ft 402 kts
2026-05-07 20:20 -31.08571 -58.41439 40698 ft 402 kts
2026-05-07 20:20 -31.03060 -58.40322 40676 ft 402 kts
2026-05-07 20:21 -30.97535 -58.39204 40704 ft 403 kts
2026-05-07 20:21 -30.92050 -58.38096 40706 ft 403 kts
2026-05-07 20:22 -30.86522 -58.36947 40705 ft 404 kts
2026-05-07 20:22 -30.81001 -58.35731 40705 ft 404 kts
2026-05-07 20:23 -30.75479 -58.34505 40708 ft 404 kts
2026-05-07 20:23 -30.69955 -58.33287 40710 ft 404 kts
2026-05-07 20:24 -30.64426 -58.32073 40712 ft 405 kts
2026-05-07 20:24 -30.58886 -58.30873 40719 ft 404 kts
2026-05-07 20:25 -30.53347 -58.29777 40691 ft 404 kts
2026-05-07 20:25 -30.47801 -58.28723 40720 ft 405 kts
2026-05-07 20:26 -30.42240 -58.27663 40733 ft 405 kts
2026-05-07 20:26 -30.36673 -58.26593 40726 ft 406 kts
2026-05-07 20:27 -30.31104 -58.25521 40730 ft 406 kts
2026-05-07 20:27 -30.25571 -58.24456 40729 ft 406 kts
2026-05-07 20:28 -30.19955 -58.23378 40740 ft 406 kts
2026-05-07 20:28 -30.14416 -58.22315 40739 ft 406 kts
2026-05-07 20:29 -30.08833 -58.21245 40740 ft 406 kts
2026-05-07 20:29 -30.03252 -58.20177 40743 ft 407 kts
2026-05-07 20:30 -29.97684 -58.19111 40742 ft 404 kts
2026-05-07 20:30 -29.92151 -58.18053 40746 ft 402 kts
2026-05-07 20:31 -29.86632 -58.17001 40747 ft 402 kts
2026-05-07 20:31 -29.81108 -58.15942 40746 ft 403 kts
2026-05-07 20:32 -29.75586 -58.14807 40749 ft 403 kts
2026-05-07 20:32 -29.70065 -58.13642 40739 ft 403 kts
2026-05-07 20:33 -29.64543 -58.12481 40738 ft 403 kts
2026-05-07 20:33 -29.59016 -58.11327 40737 ft 403 kts
2026-05-07 20:34 -29.53497 -58.10179 40740 ft 403 kts
2026-05-07 20:34 -29.47969 -58.09030 40735 ft 404 kts
2026-05-07 20:35 -29.42431 -58.07877 40741 ft 405 kts
2026-05-07 20:35 -29.36904 -58.06524 40746 ft 407 kts
2026-05-07 20:36 -29.31385 -58.05040 40739 ft 407 kts
2026-05-07 20:36 -29.25906 -58.03566 40739 ft 407 kts
2026-05-07 20:37 -29.20381 -58.02101 40737 ft 408 kts
2026-05-07 20:37 -29.14849 -58.00648 40741 ft 408 kts
2026-05-07 20:38 -29.09307 -57.99195 40744 ft 408 kts
2026-05-07 20:38 -29.03766 -57.97743 40746 ft 408 kts
2026-05-07 20:39 -28.98230 -57.96294 40746 ft 408 kts
2026-05-07 20:39 -28.92688 -57.94844 40753 ft 409 kts
2026-05-07 20:40 -28.87139 -57.93394 40751 ft 409 kts
2026-05-07 20:40 -28.81594 -57.91946 40738 ft 408 kts
2026-05-07 20:41 -28.76088 -57.90507 40750 ft 404 kts
2026-05-07 20:41 -28.70612 -57.89067 40716 ft 405 kts
2026-05-07 20:41 -28.67970 -57.87806 40745 ft 424 kts 23°
2026-05-07 20:42 -28.65666 -57.85591 40745 ft 446 kts 39°
2026-05-07 20:42 -28.63908 -57.82587 40752 ft 466 kts 52°
2026-05-07 20:42 -28.62502 -57.79229 40742 ft 473 kts 56°
2026-05-07 20:43 -28.59852 -57.72407 40741 ft 475 kts 56°
2026-05-07 20:43 -28.57187 -57.65515 40732 ft 476 kts 56°
2026-05-07 20:44 -28.54487 -57.58647 40726 ft 477 kts 56°
2026-05-07 20:44 -28.51746 -57.51763 40726 ft 478 kts 56°
2026-05-07 20:45 -28.48993 -57.44885 40715 ft 477 kts 54°
2026-05-07 20:45 -28.47398 -57.41644 40716 ft 465 kts 46°
2026-05-07 20:45 -28.45504 -57.38706 40716 ft 458 kts 41°
2026-05-07 20:46 -28.41353 -57.33283 40709 ft 454 kts 36°
2026-05-07 20:46 -28.37022 -57.28017 40701 ft 461 kts 40°
2026-05-07 20:47 -28.33121 -57.22161 40696 ft 468 kts 45°
2026-05-07 20:47 -28.29409 -57.16085 40687 ft 468 kts 45°
2026-05-07 20:48 -28.25695 -57.10005 40674 ft 468 kts 46°
2026-05-07 20:48 -28.21922 -57.03956 40682 ft 469 kts 41°
2026-05-07 20:48 -28.19637 -57.01439 40687 ft 450 kts 25°
2026-05-07 20:49 -28.16983 -56.99656 40693 ft 440 kts 17°
2026-05-07 20:49 -28.11470 -56.96669 40691 ft 439 kts 15°
2026-05-07 20:50 -28.05972 -56.93765 40687 ft 439 kts 15°
2026-05-07 20:50 -28.00441 -56.90852 40686 ft 438 kts 15°
2026-05-07 20:51 -27.94869 -56.87926 40689 ft 438 kts 15°
2026-05-07 20:51 -27.89310 -56.85369 40690 ft 427 kts
2026-05-07 20:52 -27.83534 -56.84551 40690 ft 416 kts 355°
2026-05-07 20:52 -27.77764 -56.84147 40686 ft 416 kts 355°
2026-05-07 20:53 -27.71958 -56.83754 40693 ft 420 kts 355°
2026-05-07 20:53 -27.66121 -56.83371 40670 ft 421 kts 355°
2026-05-07 20:54 -27.60262 -56.82996 40693 ft 422 kts 355°
2026-05-07 20:54 -27.54384 -56.82628 40698 ft 422 kts 355°
2026-05-07 20:55 -27.48526 -56.82264 40702 ft 422 kts 355°
2026-05-07 20:55 -27.42649 -56.81901 40698 ft 422 kts 355°
2026-05-07 20:56 -27.36766 -56.81524 40705 ft 425 kts 355°
2026-05-07 20:56 -27.30846 -56.81144 40702 ft 427 kts 355°
2026-05-07 20:57 -27.24919 -56.80768 40708 ft 427 kts 355°
2026-05-07 20:57 -27.18992 -56.80393 40708 ft 426 kts 355°
2026-05-07 20:58 -27.13105 -56.80014 40704 ft 429 kts 355°
2026-05-07 20:58 -27.07107 -56.79614 40703 ft 434 kts 355°
2026-05-07 20:58 -27.04102 -56.79417 40337 ft 433 kts 355°
2026-05-07 20:59 -27.01107 -56.79226 40018 ft 428 kts 355°
2026-05-07 20:59 -26.98144 -56.79044 39663 ft 425 kts 355°
2026-05-07 20:59 -26.95200 -56.78871 39251 ft 423 kts 355°
2026-05-07 20:59 -26.92268 -56.78711 38810 ft 422 kts 355°
2026-05-07 21:00 -26.89334 -56.78565 38327 ft 422 kts 355°
2026-05-07 21:00 -26.87393 -56.78476 37958 ft 421 kts 355°
2026-05-07 21:00 -26.84462 -56.78347 37372 ft 422 kts 355°
2026-05-07 21:00 -26.81526 -56.78220 36755 ft 423 kts 354°
2026-05-07 21:01 -26.78581 -56.78093 36133 ft 424 kts 354°
2026-05-07 21:01 -26.75622 -56.77968 35504 ft 426 kts 354°
2026-05-07 21:01 -26.72656 -56.77845 34875 ft 427 kts 354°
2026-05-07 21:01 -26.69681 -56.77722 34256 ft 429 kts 354°
2026-05-07 21:02 -26.66689 -56.77599 33608 ft 431 kts 354°
2026-05-07 21:02 -26.63687 -56.77474 32804 ft 434 kts 354°
2026-05-07 21:02 -26.60651 -56.77339 31936 ft 439 kts 354°
2026-05-07 21:02 -26.57592 -56.77201 31178 ft 441 kts 354°
2026-05-07 21:03 -26.54528 -56.77090 30526 ft 439 kts 352°
2026-05-07 21:03 -26.51485 -56.77275 29547 ft 438 kts 346°
2026-05-07 21:03 -26.48505 -56.77937 28539 ft 435 kts 338°
2026-05-07 21:03 -26.45704 -56.79086 27771 ft 422 kts 330°
2026-05-07 21:04 -26.43186 -56.80630 26649 ft 406 kts 322°
2026-05-07 21:04 -26.40941 -56.82479 25463 ft 396 kts 319°
2026-05-07 21:04 -26.38819 -56.84360 24512 ft 383 kts 319°
2026-05-07 21:04 -26.36753 -56.86204 23328 ft 378 kts 319°
2026-05-07 21:05 -26.34707 -56.88022 22021 ft 372 kts 320°
2026-05-07 21:05 -26.32692 -56.89804 20797 ft 366 kts 320°
2026-05-07 21:05 -26.30709 -56.91554 19641 ft 360 kts 321°
2026-05-07 21:05 -26.28757 -56.93272 18670 ft 353 kts 321°
2026-05-07 21:06 -26.26888 -56.94914 18255 ft 331 kts 321°
2026-05-07 21:06 -26.25147 -56.96442 17890 ft 318 kts 321°
2026-05-07 21:06 -26.23421 -56.97956 17477 ft 314 kts 321°
2026-05-07 21:06 -26.21720 -56.99448 17093 ft 309 kts 321°
2026-05-07 21:07 -26.20041 -57.00920 16709 ft 305 kts 321°
2026-05-07 21:07 -26.18387 -57.02369 16344 ft 301 kts 321°
2026-05-07 21:07 -26.16740 -57.03811 15986 ft 301 kts 321°
2026-05-07 21:07 -26.15094 -57.05252 15603 ft 301 kts 321°
2026-05-07 21:08 -26.13452 -57.06689 15247 ft 300 kts 321°
2026-05-07 21:08 -26.11814 -57.08122 14868 ft 299 kts 321°
2026-05-07 21:08 -26.10176 -57.09554 14510 ft 299 kts 321°
2026-05-07 21:08 -26.08547 -57.10978 14159 ft 298 kts 321°
2026-05-07 21:09 -26.06920 -57.12400 13789 ft 296 kts 320°
2026-05-07 21:09 -26.05309 -57.13804 13404 ft 293 kts 320°
2026-05-07 21:09 -26.03709 -57.15201 13023 ft 291 kts 320°
2026-05-07 21:09 -26.02120 -57.16587 12670 ft 290 kts 320°
2026-05-07 21:10 -26.00537 -57.17969 12328 ft 288 kts 320°
2026-05-07 21:10 -25.98968 -57.19338 11979 ft 286 kts 320°
2026-05-07 21:10 -25.97405 -57.20701 11624 ft 285 kts 320°
2026-05-07 21:10 -25.95845 -57.22061 11285 ft 284 kts 320°
2026-05-07 21:11 -25.94295 -57.23412 10934 ft 282 kts 320°
2026-05-07 21:11 -25.92757 -57.24750 10642 ft 277 kts 320°
2026-05-07 21:11 -25.89914 -57.27221 10453 ft 239 kts 320°
2026-05-07 21:12 -25.88645 -57.28323 10354 ft 228 kts 320°
2026-05-07 21:12 -25.87384 -57.29423 10271 ft 233 kts 320°
2026-05-07 21:12 -25.86106 -57.30537 10085 ft 234 kts 320°
2026-05-07 21:12 -25.84832 -57.31645 9824 ft 232 kts 320°
2026-05-07 21:13 -25.83567 -57.32745 9569 ft 230 kts 319°
2026-05-07 21:13 -25.82311 -57.33836 9304 ft 229 kts 320°
2026-05-07 21:13 -25.81064 -57.34927 9073 ft 227 kts 320°
2026-05-07 21:13 -25.79823 -57.36005 8833 ft 226 kts 320°
2026-05-07 21:14 -25.78589 -57.37079 8582 ft 225 kts 320°
2026-05-07 21:14 -25.77359 -57.38145 8333 ft 223 kts 321°
2026-05-07 21:14 -25.76135 -57.39204 8106 ft 224 kts 321°
2026-05-07 21:14 -25.74875 -57.40297 7882 ft 239 kts 321°
2026-05-07 21:15 -25.73548 -57.41448 7651 ft 244 kts 321°
2026-05-07 21:15 -25.72207 -57.42609 7406 ft 243 kts 321°
2026-05-07 21:15 -25.70881 -57.43758 7157 ft 241 kts 321°
2026-05-07 21:15 -25.69571 -57.44892 6975 ft 235 kts 322°
2026-05-07 21:16 -25.68306 -57.45987 6841 ft 226 kts 322°
2026-05-07 21:16 -25.67081 -57.47048 6655 ft 221 kts 322°
2026-05-07 21:16 -25.65876 -57.48091 6400 ft 219 kts 322°
2026-05-07 21:16 -25.64684 -57.49123 6149 ft 216 kts 322°
2026-05-07 21:17 -25.63504 -57.50143 5883 ft 214 kts 322°
2026-05-07 21:17 -25.62353 -57.51140 5721 ft 204 kts 322°
2026-05-07 21:17 -25.61280 -57.52070 5502 ft 188 kts 322°
2026-05-07 21:17 -25.60288 -57.52928 5307 ft 176 kts 322°
2026-05-07 21:18 -25.59324 -57.53761 5003 ft 177 kts 322°
2026-05-07 21:18 -25.58346 -57.54603 4783 ft 180 kts 322°
2026-05-07 21:18 -25.57353 -57.55453 4552 ft 180 kts 322°
2026-05-07 21:18 -25.56364 -57.56307 4352 ft 179 kts 321°
2026-05-07 21:19 -25.55398 -57.57146 4162 ft 179 kts 322°
2026-05-07 21:19 -25.54402 -57.57969 3945 ft 179 kts 327°
2026-05-07 21:19 -25.53281 -57.58581 3713 ft 182 kts 340°
2026-05-07 21:19 -25.52003 -57.58687 3529 ft 189 kts 359°
2026-05-07 21:20 -25.50687 -57.58443 3455 ft 193 kts
2026-05-07 21:20 -25.49372 -57.58123 3372 ft 194 kts
2026-05-07 21:20 -25.48065 -57.57794 3297 ft 188 kts
2026-05-07 21:20 -25.46812 -57.57476 3216 ft 183 kts
2026-05-07 21:21 -25.45580 -57.57170 3121 ft 177 kts
2026-05-07 21:21 -25.44416 -57.56879 3046 ft 165 kts
2026-05-07 21:21 -25.43338 -57.56609 2957 ft 152 kts
2026-05-07 21:21 -25.42347 -57.56364 2773 ft 140 kts
2026-05-07 21:22 -25.41428 -57.56139 2562 ft 130 kts
2026-05-07 21:22 -25.40566 -57.55931 2387 ft 126 kts
2026-05-07 21:22 -25.39710 -57.55727 2308 ft 126 kts
2026-05-07 21:22 -25.38850 -57.55519 2241 ft 126 kts
2026-05-07 21:23 -25.38003 -57.55314 2086 ft 123 kts 360°
2026-05-07 21:23 -25.37174 -57.55113 2039 ft 123 kts
2026-05-07 21:23 -25.36276 -57.54907 2067 ft 141 kts
2026-05-07 21:23 -25.35282 -57.54672 2047 ft 148 kts
2026-05-07 21:24 -25.34282 -57.54426 2037 ft 147 kts
2026-05-07 21:24 -25.33308 -57.54181 1990 ft 140 kts
2026-05-07 21:24 -25.32360 -57.53947 1846 ft 139 kts
2026-05-07 21:24 -25.31419 -57.53716 1670 ft 138 kts
2026-05-07 21:25 -25.30477 -57.53487 1378 ft 139 kts
2026-05-07 21:25 -25.29525 -57.53257 1164 ft 141 kts
2026-05-07 21:25 -25.28561 -57.53025 1033 ft 141 kts
2026-05-07 21:25 -25.27630 -57.52792 843 ft 134 kts
2026-05-07 21:26 -25.26742 -57.52577 631 ft 128 kts
2026-05-07 21:26 -25.25866 -57.52378 422 ft 127 kts 13°
2026-05-07 21:26 -25.25032 -57.52168 299 ft 116 kts 13°
2026-05-07 21:26 -25.24398 -57.52010 287 ft 65 kts 12°
2026-05-07 21:27 -25.24044 -57.51924 284 ft 48 kts 13°
2026-05-07 21:27 -25.23737 -57.51848 278 ft 43 kts 12°
2026-05-07 21:27 -25.23457 -57.51779 277 ft 39 kts 13°
2026-05-07 21:27 -25.23202 -57.51715 276 ft 35 kts 12°
2026-05-07 21:28 -25.23068 -57.51668 276 ft 9 kts 50°
2026-05-07 21:28 -25.23070 -57.51605 277 ft 8 kts 101°
2026-05-07 21:28 -25.23079 -57.51556 279 ft 6 kts 101°
2026-05-07 21:28 -25.23098 -57.51496 284 ft 8 kts 134°
2026-05-07 21:29 -25.23159 -57.51493 281 ft 11 kts 191°
2026-05-07 21:29 -25.23241 -57.51511 282 ft 13 kts 193°
2026-05-07 21:29 -25.23334 -57.51535 282 ft 15 kts 193°
2026-05-07 21:29 -25.23441 -57.51563 282 ft 17 kts 193°
2026-05-07 21:30 -25.23555 -57.51590 282 ft 18 kts 192°
2026-05-07 21:30 -25.23678 -57.51619 282 ft 18 kts 192°
2026-05-07 21:30 -25.23796 -57.51649 282 ft 14 kts 193°
2026-05-07 21:30 -25.23888 -57.51673 282 ft 14 kts 193°
2026-05-07 21:31 -25.23971 -57.51662 282 ft 3 kts 149°
2026-05-07 21:31 -25.23997 -57.51644 282 ft 6 kts 149°
2026-05-07 21:31 -25.24027 -57.51625 282 ft 0 kts 149°
2026-05-07 21:31 -25.24030 -57.51622 282 ft 2 kts 149°
2026-05-07 21:32 -25.24047 -57.51611 282 ft 4 kts 149°
2026-05-07 21:32 -25.24078 -57.51591 282 ft 6 kts 149°
2026-05-07 21:32 -25.24107 -57.51557 282 ft 6 kts 121°
2026-05-07 21:32 -25.24118 -57.51525 282 ft 3 kts 109°
2026-05-07 21:33 -25.24124 -57.51505 282 ft 1 kts 108°
2026-05-07 21:33 -25.24126 -57.51498 282 ft 0 kts 108°
2026-05-07 21:33 -25.24127 -57.51494 282 ft 0 kts 108°